Regional Weather Roundup
Issued by NWS Memphis, TN

Home | Current Version | Previous Version | Text Only | Print | Product List | Glossary On
Versions: 1 2 3 4 5 6 7 8 9 10 11 12 13 14 15 16 17 18 19 20 21 22 23 24 25 26 27 28 29 30 31 32 33 34 35 36 37 38 39 40 41 42 43 44 45 46 47 48 49 50
000
ASUS44 KMEG 250900
RWRMEG
MEMPHIS CWA HOURLY WEATHER ROUNDUP
NATIONAL WEATHER SERVICE MEMPHIS TN
400 AM CDT MON SEP 25 2017

...WEST TENNESSEE...

CITY           SKY/WX    TMP DP  RH WIND       PRES   REMARKS
MEMPHIS INTL   CLEAR     69  67  93 CALM      29.97S
NWS MEMPHIS      N/A     68 N/A N/A MISG        N/A
JACKSON        CLEAR     65  65 100 CALM      29.99S
DYERSBURG      CLEAR     66  66 100 CALM      29.99S


...EASTERN ARKANSAS...

CITY           SKY/WX    TMP DP  RH WIND       PRES   REMARKS
JONESBORO      CLEAR     66  66 100 NE5       29.97S
WEST MEMPHIS   CLEAR     68  68 100 CALM      29.96S
BATESVILLE     PTCLDY    66  65  96 CALM      29.98S
NEWPORT        CLEAR     65  65 100 N5        29.97S
BLYTHEVILLE    CLEAR     68  67  96 E5        29.98S
SEARCY         CLEAR     67  67 100 CALM      29.98S
STUTTGART      CLEAR     71  67  87 E5        29.96S
PINE BLUFF     PTCLDY    67  65  93 CALM      29.95S
MONTICELLO     CLEAR     68  66  93 CALM      29.95S


...NORTH MISSISSIPPI...

CITY           SKY/WX    TMP DP  RH WIND       PRES   REMARKS
TUPELO         CLEAR     68  65  90 NW3       29.97F
TUNICA           N/A    N/A N/A N/A CALM      29.97S HAZE
CLARKSDALE       N/A     68  68 100 CALM      29.96S
GREENWOOD      CLEAR     67  65  93 CALM      29.95S
COLUMBUS       MOCLDY    68  68 100 CALM      29.96R
STARKVILLE     CLOUDY    64  64 100 CALM      29.98R FOG


...SOUTHEAST MISSOURI...

CITY           SKY/WX    TMP DP  RH WIND       PRES   REMARKS
MALDEN         CLEAR     68  64  88 CALM      29.99S
WEST PLAINS    CLEAR     63  61  93 CALM      30.02R
POPLAR BLUFF   CLEAR     64  64 100 CALM      29.98S
CAPE GIRARDEAU CLEAR     62  60  93 CALM      29.99R


...NORTHWEST ALABAMA...

CITY           SKY/WX    TMP DP  RH WIND       PRES   REMARKS
MUSCLE SHOALS  CLOUDY    67  64  90 CALM      30.01R


...MIDDLE TENNESSEE...

CITY           SKY/WX    TMP DP  RH WIND       PRES   REMARKS
NASHVILLE      MOCLDY    69  66  90 CALM      30.01S


...WESTERN KENTUCKY...

CITY           SKY/WX    TMP DP  RH WIND       PRES   REMARKS
PADUCAH        CLEAR     65  62  90 CALM      29.98S
FORT CAMPBELL  CLEAR     69  69 100 CALM      30.00S


...CENTRAL ARKANSAS...

CITY           SKY/WX    TMP DP  RH WIND       PRES   REMARKS
LITTLE ROCK    CLEAR     68  68 100 CALM      29.96R


SKY/WX REPORTED AS FAIR MEANS FEW OR NO CLOUDS BELOW
12 THOUSAND FEET.





USA.gov is the U.S. government's official web portal to all federal, state and local government web resources and services.